カタログに戻る

CYGFM04

運用中気象VLEO
NORAD 41885·PAYLOAD·🇺🇸 United States

打ち上げ Dec 15, 2016 から Cape Canaveral Space Force Station

Loading…

次のパス (今後24時間)

TLE

最新Source: Space-Track

元期: Sep 14, 2026, 15:15 UTC

1 41885U 16078B   26257.63570945  .00032768  00000-0  29952-3 0  9995
2 41885  34.9324 349.1813 0003919 342.5117  17.5474 15.66751905543013

AllMySatでCYGFM04をリアルタイム追跡

Download on the App Store